Retour au catalogue

PRSC-E03

ActifScienceVLEO
NORAD 68835·PAYLOAD·🇨🇳 China

Lancé Apr 25, 2026 depuis Taiyuan Satellite Launch Center

Loading…

Prochains Passages (prochaines 24 heures)

TLE

FraisSource: Space-Track

Époque: Sep 14, 2026, 12:22 UTC

1 68835U 26092A   26257.51562781  .00001839  00000-0  12754-3 0  9999
2 68835  38.0012 282.7665 0003958 354.9956   5.0766 15.07049765 21436

Suivez PRSC-E03 en temps réel avec AllMySat

Download on the App Store